Вернуться в каталог

THOR BURNER 2 R/B

АктивенSSO
NORAD 4954·ROCKET BODY·🇺🇸 United States

Запущен Feb 17, 1971 с Vandenberg Space Force Base

Loading…

Ближайшие Пролёты

TLE

Source: Space-Track
1  4954U 71012B   26221.85303172  .00000086  00000-0  40536-4 0  9991
2  4954  98.3216  74.2204 0037662  71.2616 289.2653 14.39788651903592

Отслеживайте THOR BURNER 2 R/B в реальном времени с AllMySat

Download on the App Store